| time (UTC) | temp F | wind direction | speed knots | gust knots | rain 1hr in | rain 24hr in | rain mn in | humidity % | barometer mb |
| 20260505010332 | 69 | 116 | 1.7 | 7.0 | 0.00 | 0.00 | 0.00 | 65 | 1001.2 |
| 20260505005822 | 70 | 292 | 1.7 | 7.0 | 0.00 | 0.00 | 0.00 | 65 | 1001.1 |
| 20260505005316 | 70 | 237 | 2.6 | 7.0 | 0.00 | 0.00 | 0.00 | 65 | 1001.1 |
| 20260505004830 | 70 | 258 | 2.6 | 7.0 | 0.00 | 0.00 | 0.00 | 65 | 1001.2 |
| 20260505004325 | 70 | 248 | 2.6 | 7.8 | 0.00 | 0.00 | 0.00 | 65 | 1001.2 |
| 20260505003820 | 70 | 144 | 2.6 | 7.8 | 0.00 | 0.00 | 0.00 | 66 | 1001.2 |
| 20260505003331 | 70 | 52 | 2.6 | 7.8 | 0.00 | 0.00 | 0.00 | 66 | 1001.3 |
| 20260505002825 | 70 | 259 | 2.6 | 7.8 | 0.00 | 0.00 | 0.00 | 66 | 1001.2 |
| 20260505002319 | 70 | 227 | 1.7 | 9.6 | 0.00 | 0.00 | 0.00 | 66 | 1001.1 |
| 20260505001813 | 71 | 247 | 3.5 | 9.6 | 0.00 | 0.00 | 0.00 | 65 | 1001.2 |
| 20260505001327 | 71 | 155 | 4.3 | 9.6 | 0.00 | 0.00 | 0.00 | 64 | 1001.2 |
| 20260505000822 | 71 | 279 | 3.5 | 9.6 | 0.00 | 0.00 | 0.00 | 64 | 1001.2 |
| 20260505000319 | 71 | 212 | 4.3 | 13.0 | 0.00 | 0.00 | 0.00 | 64 | 1001.3 |
| 20260504235813 | 71 | 164 | 4.3 | 13.0 | 0.00 | 0.00 | 0.00 | 64 | 1001.3 |
| 20260504235347 | 71 | 249 | 6.1 | 12.2 | 0.00 | 0.00 | 0.00 | 64 | 1001.2 |
| 20260504234817 | 71 | 253 | 4.3 | 9.6 | 0.00 | 0.00 | 0.00 | 65 | 1001.2 |
| 20260504234328 | 71 | 248 | 4.3 | 8.7 | 0.00 | 0.00 | 0.00 | 64 | 1001.2 |
| 20260504233844 | 71 | 239 | 4.3 | 12.2 | 0.00 | 0.00 | 0.00 | 64 | 1001.2 |
| 20260504233319 | 71 | 246 | 3.5 | 12.2 | 0.00 | 0.00 | 0.00 | 64 | 1001.2 |
| 20260504232833 | 71 | 90 | 2.6 | 9.6 | 0.00 | 0.00 | 0.00 | 64 | 1001.2 |
| 20260504232328 | 72 | 120 | 3.5 | 11.3 | 0.00 | 0.00 | 0.00 | 62 | 1001.2 |
| 20260504231822 | 72 | 287 | 4.3 | 13.0 | 0.00 | 0.00 | 0.00 | 63 | 1001.3 |
| 20260504231335 | 72 | 218 | 5.2 | 13.0 | 0.00 | 0.00 | 0.00 | 61 | 1001.3 |
| 20260504230828 | 73 | 239 | 2.6 | 14.8 | 0.00 | 0.00 | 0.00 | 61 | 1001.3 |
| 20260504230319 | 73 | 229 | 8.7 | 17.4 | 0.00 | 0.00 | 0.00 | 60 | 1001.4 |
| 20260504225832 | 73 | 206 | 5.2 | 17.4 | 0.00 | 0.00 | 0.00 | 60 | 1001.6 |
| 20260504225323 | 73 | 243 | 7.0 | 17.4 | 0.00 | 0.00 | 0.00 | 58 | 1001.6 |
| 20260504224814 | 73 | 208 | 6.1 | 18.2 | 0.00 | 0.00 | 0.00 | 58 | 1001.6 |
| 20260504224328 | 73 | 210 | 7.0 | 18.2 | 0.00 | 0.00 | 0.00 | 58 | 1001.8 |
| 20260504223828 | 73 | 285 | 7.0 | 18.2 | 0.00 | 0.00 | 0.00 | 57 | 1001.8 |
| 20260504223318 | 74 | 229 | 7.0 | 18.2 | 0.00 | 0.00 | 0.00 | 56 | 1001.8 |
| 20260504222850 | 74 | 257 | 6.1 | 16.5 | 0.00 | 0.00 | 0.00 | 55 | 1002.0 |
| 20260504222323 | 74 | 162 | 7.8 | 18.2 | 0.00 | 0.00 | 0.00 | 54 | 1002.0 |
| 20260504221834 | 74 | 222 | 9.6 | 18.2 | 0.00 | 0.00 | 0.00 | 54 | 1001.9 |
| 20260504221327 | 74 | 289 | 6.1 | 16.5 | 0.00 | 0.00 | 0.00 | 55 | 1001.8 |
| 20260504220820 | 74 | 220 | 7.8 | 18.2 | 0.00 | 0.00 | 0.00 | 53 | 1001.8 |
| 20260504220313 | 75 | 278 | 8.7 | 18.2 | 0.00 | 0.00 | 0.00 | 53 | 1001.8 |
| 20260504215827 | 75 | 258 | 8.7 | 19.1 | 0.00 | 0.00 | 0.00 | 53 | 1001.8 |
| 20260504215346 | 75 | 206 | 7.8 | 19.1 | 0.00 | 0.00 | 0.00 | 53 | 1001.8 |
| 20260504214819 | 75 | 266 | 8.7 | 21.7 | 0.00 | 0.00 | 0.00 | 53 | 1001.8 |
| 20260504214333 | 75 | 224 | 7.8 | 21.7 | 0.00 | 0.00 | 0.00 | 53 | 1001.9 |
| 20260504213847 | 75 | 339 | 9.6 | 24.3 | 0.00 | 0.00 | 0.00 | 52 | 1001.7 |
| 20260504213322 | 76 | 276 | 10.4 | 24.3 | 0.00 | 0.00 | 0.00 | 52 | 1001.8 |
| 20260504212816 | 76 | 285 | 8.7 | 16.5 | 0.00 | 0.00 | 0.00 | 52 | 1001.6 |
| 20260504212330 | 77 | 257 | 6.1 | 15.6 | 0.00 | 0.00 | 0.00 | 52 | 1001.6 |
| 20260504211841 | 76 | 240 | 7.8 | 15.6 | 0.00 | 0.00 | 0.00 | 52 | 1001.6 |
| 20260504211331 | 76 | 233 | 7.0 | 20.0 | 0.00 | 0.00 | 0.00 | 53 | 1001.6 |
| 20260504210848 | 76 | 235 | 7.8 | 20.0 | 0.00 | 0.00 | 0.00 | 52 | 1001.5 |
| 20260504210321 | 76 | 259 | 6.1 | 16.5 | 0.00 | 0.00 | 0.00 | 53 | 1001.5 |
| 20260504205832 | 76 | 307 | 9.6 | 15.6 | 0.00 | 0.00 | 0.00 | 52 | 1001.4 |
| 20260504205322 | 76 | 194 | 7.8 | 15.6 | 0.00 | 0.00 | 0.00 | 52 | 1001.5 |
| 20260504204816 | 76 | 235 | 10.4 | 17.4 | 0.00 | 0.00 | 0.00 | 51 | 1001.4 |
| 20260504204332 | 77 | 222 | 6.1 | 17.4 | 0.00 | 0.00 | 0.00 | 52 | 1001.5 |
| 20260504203828 | 77 | 250 | 7.0 | 17.4 | 0.00 | 0.00 | 0.00 | 52 | 1001.5 |
| 20260504203322 | 76 | 234 | 7.8 | 17.4 | 0.00 | 0.00 | 0.00 | 54 | 1001.5 |
| 20260504202837 | 76 | 236 | 7.0 | 14.8 | 0.00 | 0.00 | 0.00 | 56 | 1001.5 |
| 20260504202333 | 76 | 285 | 7.0 | 14.8 | 0.00 | 0.00 | 0.00 | 55 | 1001.6 |
| 20260504201844 | 76 | 218 | 7.8 | 17.4 | 0.00 | 0.00 | 0.00 | 54 | 1001.7 |
| 20260504201318 | 76 | 263 | 7.8 | 17.4 | 0.00 | 0.00 | 0.00 | 55 | 1001.7 |
| 20260504200831 | 76 | 225 | 5.2 | 16.5 | 0.00 | 0.00 | 0.00 | 55 | 1001.7 |
| 20260504200341 | 77 | 253 | 7.0 | 16.5 | 0.00 | 0.00 | 0.00 | 55 | 1001.6 |
| 20260504195831 | 76 | 255 | 5.2 | 13.0 | 0.00 | 0.00 | 0.00 | 55 | 1001.8 |
| 20260504195325 | 77 | 230 | 5.2 | 16.5 | 0.00 | 0.00 | 0.00 | 56 | 1001.7 |
| 20260504194840 | 76 | 245 | 7.0 | 16.5 | 0.00 | 0.00 | 0.00 | 55 | 1001.8 |
| 20260504194332 | 76 | 243 | 5.2 | 17.4 | 0.00 | 0.00 | 0.00 | 56 | 1002.0 |
| 20260504193824 | 76 | 259 | 6.1 | 17.4 | 0.00 | 0.00 | 0.00 | 56 | 1002.1 |
| 20260504193335 | 76 | 282 | 8.7 | 17.4 | 0.00 | 0.00 | 0.00 | 55 | 1002.1 |
| 20260504192826 | 76 | 172 | 6.1 | 12.2 | 0.00 | 0.00 | 0.00 | 57 | 1002.1 |
| 20260504192321 | 76 | 237 | 3.5 | 12.2 | 0.00 | 0.00 | 0.00 | 58 | 1002.2 |
| 20260504191832 | 75 | 243 | 6.1 | 13.0 | 0.00 | 0.00 | 0.00 | 58 | 1002.2 |
| 20260504191343 | 75 | 221 | 4.3 | 13.0 | 0.00 | 0.00 | 0.00 | 60 | 1002.4 |
| 20260504190816 | 75 | 35 | 7.0 | 13.0 | 0.00 | 0.00 | 0.00 | 57 | 1002.4 |
| 20260504190313 | 74 | 171 | 6.1 | 13.0 | 0.00 | 0.00 | 0.00 | 61 | 1002.5 |
| 20260504185827 | 74 | 256 | 5.2 | 13.0 | 0.00 | 0.00 | 0.00 | 60 | 1002.4 |
| 20260504185338 | 75 | 245 | 3.5 | 12.2 | 0.00 | 0.00 | 0.00 | 61 | 1002.6 |
| 20260504184828 | 74 | 228 | 6.1 | 15.6 | 0.00 | 0.00 | 0.00 | 62 | 1002.5 |
| 20260504184342 | 74 | 226 | 6.1 | 15.6 | 0.00 | 0.00 | 0.00 | 58 | 1002.7 |
| 20260504183817 | 75 | 236 | 6.1 | 13.9 | 0.00 | 0.00 | 0.00 | 62 | 1002.8 |
| 20260504183328 | 75 | 182 | 6.1 | 12.2 | 0.00 | 0.00 | 0.00 | 59 | 1002.9 |
| 20260504182822 | 75 | 228 | 5.2 | 12.2 | 0.00 | 0.00 | 0.00 | 59 | 1002.9 |
| 20260504182356 | 74 | 172 | 3.5 | 11.3 | 0.00 | 0.00 | 0.00 | 63 | 1002.8 |
| 20260504181826 | 73 | 237 | 5.2 | 15.6 | 0.00 | 0.00 | 0.00 | 61 | 1002.8 |
| 20260504181317 | 73 | 64 | 6.1 | 15.6 | 0.00 | 0.00 | 0.00 | 61 | 1003.1 |
| 20260504180829 | 73 | 244 | 6.1 | 14.8 | 0.00 | 0.00 | 0.00 | 62 | 1003.1 |
| 20260504180325 | 74 | 170 | 5.2 | 9.6 | 0.00 | 0.00 | 0.00 | 61 | 1003.1 |
| 20260504175819 | 73 | 256 | 3.5 | 9.6 | 0.00 | 0.00 | 0.00 | 65 | 1003.1 |
| 20260504175337 | 72 | 226 | 4.3 | 11.3 | 0.00 | 0.00 | 0.00 | 63 | 1003.2 |
| 20260504174830 | 72 | 282 | 4.3 | 11.3 | 0.00 | 0.00 | 0.00 | 63 | 1003.3 |
| 20260504174321 | 71 | 252 | 2.6 | 14.8 | 0.00 | 0.00 | 0.00 | 65 | 1003.4 |
| 20260504173833 | 71 | 206 | 3.5 | 14.8 | 0.00 | 0.00 | 0.00 | 62 | 1003.5 |
| 20260504173324 | 72 | 250 | 5.2 | 9.6 | 0.00 | 0.00 | 0.00 | 60 | 1003.5 |
| 20260504172835 | 72 | 253 | 3.5 | 8.7 | 0.00 | 0.00 | 0.00 | 66 | 1003.5 |
| 20260504172326 | 72 | 282 | 3.5 | 8.7 | 0.00 | 0.00 | 0.00 | 63 | 1003.5 |
| 20260504171816 | 72 | 247 | 4.3 | 10.4 | 0.00 | 0.00 | 0.00 | 63 | 1003.7 |
| 20260504171330 | 72 | 249 | 5.2 | 10.4 | 0.00 | 0.00 | 0.00 | 63 | 1003.7 |
| 20260504170826 | 71 | 242 | 3.5 | 11.3 | 0.00 | 0.00 | 0.00 | 63 | 1003.8 |
| 20260504170317 | 71 | 262 | 3.5 | 13.0 | 0.00 | 0.00 | 0.00 | 63 | 1003.9 |
| 20260504160343 | 70 | 224 | 3.5 | 10.4 | 0.00 | 0.00 | 0.00 | 59 | 1004.7 |
| 20260504150843 | 67 | 260 | 4.3 | 7.8 | 0.00 | 0.00 | 0.00 | 65 | 1005.3 |
| 20260504150316 | 66 | 239 | 2.6 | 7.8 | 0.00 | 0.00 | 0.00 | 67 | 1005.3 |
| 20260504141322 | 63 | 233 | 2.6 | 7.8 | 0.00 | 0.00 | 0.00 | 71 | 1005.8 |
| 20260504140817 | 62 | 268 | 1.7 | 7.8 | 0.00 | 0.00 | 0.00 | 72 | 1005.8 |
| 20260504140348 | 62 | 244 | 2.6 | 7.8 | 0.00 | 0.00 | 0.00 | 71 | 1005.8 |
| 20260504130817 | 58 | 291 | 1.7 | 5.2 | 0.00 | 0.00 | 0.00 | 76 | 1006.1 |
| 20260504130328 | 57 | 250 | 2.6 | 7.0 | 0.00 | 0.00 | 0.00 | 76 | 1006.1 |
| 20260504120317 | 53 | 265 | 1.7 | 4.3 | 0.00 | 0.00 | 0.00 | 79 | 1006.3 |
| 20260504110329 | 51 | 234 | 1.7 | 7.8 | 0.00 | 0.00 | 0.00 | 81 | 1006.4 |
| 20260504100327 | 51 | 239 | 1.7 | 6.1 | 0.00 | 0.00 | 0.00 | 80 | 1006.2 |
| 20260504081833 | 49 | 239 | 0.9 | 3.5 | 0.00 | 0.00 | 0.00 | 83 | 1006.3 |
| 20260504081324 | 49 | 328 | 0.9 | 3.5 | 0.00 | 0.00 | 0.00 | 83 | 1006.4 |
| 20260504080836 | 49 | 183 | 0.9 | 3.5 | 0.00 | 0.00 | 0.00 | 82 | 1006.5 |
| 20260504080327 | 49 | 71 | 0.9 | 3.5 | 0.00 | 0.00 | 0.00 | 83 | 1006.6 |
| 20260504070334 | 49 | 245 | 0.0 | 2.6 | 0.00 | 0.00 | 0.00 | 83 | 1007.4 |
| 20260504050357 | 49 | 125 | 0.9 | 1.7 | 0.00 | 0.00 | 0.00 | 84 | 1008.8 |
| 20260504045831 | 49 | 120 | 0.9 | 0.9 | 0.00 | 0.00 | 0.00 | 84 | 1008.9 |
| 20260504045321 | 49 | 125 | 0.0 | 1.7 | 0.00 | 0.00 | 0.00 | 84 | 1008.8 |
| 20260504044815 | 49 | 148 | 0.0 | 2.6 | 0.00 | 0.00 | 0.00 | 84 | 1008.9 |
| 20260504044329 | 49 | 150 | 0.9 | 2.6 | 0.00 | 0.00 | 0.00 | 84 | 1008.9 |
| 20260504043843 | 49 | 132 | 0.0 | 2.6 | 0.00 | 0.00 | 0.00 | 84 | 1008.9 |
| 20260504043335 | 49 | 119 | 0.0 | 2.6 | 0.00 | 0.00 | 0.00 | 84 | 1008.9 |
| 20260504042827 | 49 | 138 | 0.9 | 2.6 | 0.00 | 0.00 | 0.00 | 84 | 1008.8 |
| 20260504042318 | 49 | 41 | 0.9 | 2.6 | 0.00 | 0.00 | 0.00 | 85 | 1008.8 |
| 20260504041849 | 49 | 108 | 0.9 | 2.6 | 0.00 | 0.00 | 0.00 | 85 | 1008.8 |
| 20260504041325 | 49 | 171 | 0.0 | 2.6 | 0.00 | 0.00 | 0.00 | 85 | 1008.8 |
| 20260504040818 | 48 | 167 | 0.9 | 2.6 | 0.00 | 0.00 | 0.00 | 85 | 1008.8 |
| 20260504040328 | 48 | 143 | 0.9 | 2.6 | 0.00 | 0.00 | 0.00 | 85 | 1008.9 |
| 20260504035819 | 48 | 151 | 0.0 | 2.6 | 0.00 | 0.00 | 0.00 | 85 | 1008.9 |
| 20260504035330 | 48 | 240 | 0.9 | 2.6 | 0.00 | 0.00 | 0.00 | 85 | 1009.0 |
| 20260504034821 | 48 | 139 | 0.0 | 1.7 | 0.00 | 0.00 | 0.00 | 85 | 1009.1 |
| 20260504034336 | 49 | 147 | 0.9 | 1.7 | 0.00 | 0.00 | 0.00 | 85 | 1009.2 |
| 20260504033849 | 49 | 156 | 0.0 | 1.7 | 0.00 | 0.00 | 0.00 | 84 | 1009.2 |
| 20260504033322 | 49 | 141 | 0.9 | 2.6 | 0.00 | 0.00 | 0.00 | 85 | 1009.2 |
| 20260504032837 | 49 | 121 | 0.9 | 3.5 | 0.00 | 0.00 | 0.00 | 85 | 1009.2 |
| 20260504032347 | 49 | 157 | 0.9 | 3.5 | 0.00 | 0.00 | 0.00 | 85 | 1009.3 |
| 20260504031817 | 49 | 157 | 0.9 | 2.6 | 0.00 | 0.00 | 0.00 | 85 | 1009.4 |
| 20260504031329 | 49 | 114 | 0.9 | 4.3 | 0.00 | 0.00 | 0.00 | 84 | 1009.4 |
| 20260504030820 | 49 | 145 | 0.9 | 4.3 | 0.00 | 0.00 | 0.00 | 84 | 1009.4 |
| 20260504030351 | 49 | 182 | 1.7 | 4.3 | 0.00 | 0.00 | 0.00 | 85 | 1009.4 |
| 20260504025820 | 49 | 172 | 0.9 | 3.5 | 0.00 | 0.00 | 0.00 | 84 | 1009.4 |
| 20260504025331 | 49 | 141 | 0.9 | 2.6 | 0.00 | 0.00 | 0.00 | 85 | 1009.4 |
| 20260504024822 | 49 | 184 | 1.7 | 2.6 | 0.00 | 0.00 | 0.00 | 85 | 1009.5 |
| 20260504024333 | 49 | 154 | 0.9 | 3.5 | 0.00 | 0.00 | 0.00 | 85 | 1009.5 |
| 20260504023830 | 49 | 162 | 1.7 | 3.5 | 0.00 | 0.00 | 0.00 | 85 | 1009.5 |
| 20260504023320 | 49 | 158 | 1.7 | 2.6 | 0.00 | 0.00 | 0.00 | 85 | 1009.5 |
| 20260504022851 | 49 | 149 | 0.9 | 2.6 | 0.00 | 0.00 | 0.00 | 85 | 1009.5 |
| 20260504022321 | 49 | 195 | 0.9 | 2.6 | 0.00 | 0.00 | 0.00 | 85 | 1009.5 |
| 20260504021832 | 49 | 113 | 0.0 | 3.5 | 0.00 | 0.00 | 0.00 | 84 | 1009.5 |
| 20260504021323 | 49 | 162 | 0.9 | 3.5 | 0.00 | 0.00 | 0.00 | 84 | 1009.5 |
| 20260504020837 | 49 | 137 | 1.7 | 3.5 | 0.00 | 0.00 | 0.00 | 84 | 1009.5 |
| 20260504020329 | 49 | 174 | 1.7 | 3.5 | 0.00 | 0.00 | 0.00 | 84 | 1009.5 |
| 20260504015820 | 49 | 157 | 0.9 | 3.5 | 0.00 | 0.00 | 0.00 | 84 | 1009.5 |
| 20260504015331 | 49 | 156 | 1.7 | 3.5 | 0.00 | 0.00 | 0.00 | 84 | 1009.5 |
| 20260504014826 | 49 | 165 | 1.7 | 2.6 | 0.00 | 0.00 | 0.00 | 84 | 1009.5 |
| 20260504014317 | 50 | 133 | 0.9 | 2.6 | 0.00 | 0.00 | 0.00 | 84 | 1009.5 |
| 20260504013830 | 50 | 154 | 0.9 | 2.6 | 0.00 | 0.00 | 0.00 | 84 | 1009.6 |
| 20260504013320 | 50 | 162 | 0.9 | 3.5 | 0.00 | 0.00 | 0.00 | 84 | 1009.6 |
| 20260504012830 | 50 | 158 | 1.7 | 3.5 | 0.00 | 0.00 | 0.00 | 83 | 1009.6 |
| 20260504012324 | 50 | 164 | 1.7 | 3.5 | 0.00 | 0.00 | 0.00 | 83 | 1009.6 |
| 20260504011818 | 50 | 120 | 1.7 | 4.3 | 0.00 | 0.00 | 0.00 | 83 | 1009.6 |
| 20260504011332 | 50 | 158 | 1.7 | 4.3 | 0.00 | 0.00 | 0.00 | 83 | 1009.6 |
| 20260504010828 | 50 | 135 | 1.7 | 3.5 | 0.00 | 0.00 | 0.00 | 83 | 1009.5 |